Location: ????????
(55.9082°N, 38.2690°E)
Time: 22:25:07
(UTC+00:00)

Cosmos 1538 Rocket - Pass Details

Date: 07 December 2025
Orbit: 749 x 787 km, 74.0° (Epoch: 10 April)

Event Time Altitude Azimuth Distance (km) Brightness Sun altitude
Rises 15:16:31 0° 332° (NNW) 3,238 7.4 -18.3°
Reaches altitude 10° 15:18:57 10° 337° (NNW) 2,314 6.6 -18.7°
Maximum altitude 15:24:06 53° 54° (NE) 945 4.1 -19.4°
Enters shadow 15:26:20 32° 115° (ESE) 1,322 4.8 -19.7°
